#timestamp,LO_Frequency,Hit,StdDev 
1518116415.1,286047001.2,N
1518116435.9,286046998.2,N
1518116455.7,286047000.5,N
1518116475.5,286047000.7,N
1518116495.4,286047001.1,N
1518116515.2,286046999.4,N
1518116535.0,286046998.4,N
1518116535.9,286046998.4,N
1518116555.8,286046998.4,N
1518116575.6,286046998.6,N
1518116595.5,286047001.1,N
1518116615.3,286046998.3,N
1518116635.1,286046998.6,N
1518116655.9,286046998.3,N
1518116675.7,286046998.3,N
1518116695.5,286046998.5,N
1518116715.4,286047001.1,N
1518116735.2,286046998.1,N
1518116755.1,286046998.5,N
1518116756.0,286046998.5,N
1518116775.8,286046998.6,N
1518116795.6,286046998.1,N
1518116815.5,286046998.5,N
1518116835.3,286046999.3,N
1518116855.1,286046998.4,N
1518116875.9,286046998.3,N
1518116895.7,286046998.7,N
1518116915.6,286046998.3,N
1518116935.4,286046998.4,N
1518116955.2,286046998.3,N
1518116975.1,286046998.4,N
1518116976.0,286046998.4,N
1518116995.8,286046999.4,N
1518117015.7,286046999.2,N
1518117035.5,286046999.1,N
1518117055.3,286046999.2,N
1518117075.2,286046999.0,N
1518117095.0,286046998.6,N
1518117095.9,286046998.6,N
1518117115.7,286046999.6,N
1518117135.6,286046999.6,N
1518117155.4,286046999.1,N
1518117175.3,286046999.1,N
1518117195.1,286046998.9,N
1518117196.0,286046998.9,N
1518117215.8,286046999.1,N
1518117235.7,286046999.3,N
1518117255.5,286046999.0,N
1518117275.3,286046998.7,Y
1518117295.2,286047000.8,P
1518117315.0,286047000.6,N
1518117315.9,286047000.6,N
1518117335.8,286047001.2,N
1518117355.6,286046998.1,N
1518117375.4,286047001.1,N
1518117395.3,286047000.4,N
1518117415.1,286047000.8,N
1518117435.9,286046998.2,N
1518117455.7,286047001.2,N
1518117475.5,286047001.1,N
1518117495.4,286046998.1,N
1518117515.2,286046998.5,N
1518117535.0,286046998.1,N
1518117535.9,286046998.1,N
1518117555.8,286046998.7,N
1518117575.6,286046998.1,N
1518117595.5,286047001.2,N
1518117615.3,286046998.7,N
1518117635.1,286046998.2,N
1518117655.9,286046998.1,N
1518117675.7,286046998.4,N
1518117695.5,286046998.9,N
1518117715.4,286046998.7,N
1518117735.2,286046998.8,N
1518117755.1,286046998.3,N
1518117756.0,286046998.3,N
1518117775.8,286046998.4,N
1518117795.6,286046999.0,N
1518117815.5,286046998.8,N
1518117835.3,286046998.7,N
1518117855.1,286046998.7,N
1518117875.9,286046998.7,N
1518117895.7,286046998.1,N
1518117915.6,286046998.2,N
1518117935.4,286046998.2,N
1518117955.2,286046999.0,N
1518117975.1,286046998.6,N
1518117976.0,286046998.6,N
1518117995.8,286046998.7,N
1518118015.6,286047000.7,N
1518118035.5,286047000.5,N
1518118055.3,286047001.0,N
1518118075.2,286046999.8,N
1518118095.9,286047000.1,N
1518118115.7,286047002.0,N
1518118135.6,286047001.6,N
1518118155.4,286047001.5,N
1518118175.2,286047001.8,N
1518118195.1,286047004.0,Y
1518118196.0,286047004.0,P
1518118215.8,286047003.4,N
1518118235.7,286047005.7,N
1518118255.5,286047005.8,N
1518118275.3,286047005.4,N
1518118295.2,286047004.7,N
1518118315.0,286047004.6,N
1518118315.9,286047004.6,N
1518118335.8,286047007.1,Y
1518118355.6,286047003.8,P
1518118375.4,286047004.0,P
1518118395.3,286047003.5,P
1518118415.1,286047003.0,Y
1518118435.9,286047000.4,P
1518118455.7,286046999.7,N
1518118475.5,286047002.6,N
1518118495.4,286047002.0,N
1518118515.2,286047001.7,N
1518118535.0,286047004.3,Y
1518118535.9,286047004.3,P
1518118555.8,286047002.4,N
1518118575.6,286047001.9,N
1518118595.5,286047001.3,N
1518118615.3,286047004.2,Y
1518118635.1,286047002.5,P
1518118655.9,286047002.3,P
1518118675.7,286047002.0,P
1518118695.6,286047004.4,Y
1518118715.4,286047002.7,P
1518118735.2,286047002.2,P
1518118755.1,286047001.9,P
1518118756.0,286047001.9,Y
1518118775.8,286047000.9,P
1518118795.6,286047000.2,N
1518118815.5,286047002.5,N
1518118835.3,286047002.2,N
1518118855.2,286047001.9,N
1518118875.9,286047003.9,Y
1518118895.7,286047002.7,P
1518118915.6,286047002.3,P
1518118935.4,286047001.4,P
1518118955.3,286047002.0,Y
1518118975.1,286047002.8,P
1518118976.0,286047002.8,P
1518118995.8,286047002.7,P
1518119015.7,286047001.8,Y
1518119035.5,286047000.9,P
1518119055.3,286047002.4,N
1518119075.2,286047002.7,P
1518119095.0,286047002.6,Y
1518119095.9,286047002.6,P
1518119115.8,286047000.6,N
1518119135.6,286047000.6,N
1518119155.4,286046999.8,N
1518119175.3,286047002.3,N
1518119195.1,286047002.1,N
1518119215.9,286047001.4,N
1518119235.7,286047003.8,Y
1518119255.5,286047001.4,P
1518119275.4,286047003.8,P
1518119295.2,286047003.1,N
1518119315.0,286047006.0,Y
1518119315.9,286047006.0,P
1518119335.8,286047001.3,N
1518119355.6,286047001.4,N
1518119375.5,286047004.0,N
1518119395.3,286047003.5,N
1518119415.1,286047003.5,N
1518119435.9,286047003.0,N
1518119455.7,286047005.8,Y
1518119475.5,286047002.2,P
1518119495.4,286047001.8,P
1518119515.2,286047004.1,P
1518119535.1,286047003.4,Y
1518119536.0,286047003.4,P
1518119555.8,286047002.3,P
1518119575.6,286047002.2,P
1518119595.5,286047001.5,Y
1518119615.3,286047000.9,P
1518119635.2,286047000.5,N
1518119655.9,286047002.8,N
1518119675.7,286047002.2,N
1518119695.6,286047002.2,N
1518119715.4,286047001.6,N
1518119735.2,286047001.7,N
1518119755.1,286047003.8,Y
1518119756.0,286047003.8,P
1518119775.8,286047001.8,N
1518119795.7,286047004.3,P
1518119815.5,286047001.4,N
1518119835.3,286047003.0,N
1518119855.2,286047005.9,Y
1518119875.0,286047002.1,P
1518119875.9,286047002.1,P
1518119895.8,286047001.4,P
1518119915.6,286047004.2,Y
1518119935.4,286047002.5,P
1518119955.3,286047002.0,P
1518119975.1,286047001.6,P
1518119995.9,286047001.3,Y
